R8AHC-W3 Weather Reports


time (UTC)temp
F
wind
direction
speed
knots
gust
knots
rain 1hr
in
rain 24hr
in
rain mn
in
humidity
%
barometer
mb
20260508185702 59 207 3.5 0.0 0.00 0.00 0.00 68 1007.0
20260508175703 59 207 3.5 0.0 0.00 0.00 0.00 68 1007.0
20260508165705 59 207 3.5 0.0 0.00 0.00 0.00 68 1008.0
20260508155702 59 207 3.5 0.0 0.00 0.00 0.00 68 1008.0
20260508135702 70 63 5.2 0.0 0.00 0.00 0.00 54 1008.0
20260508125702 70 63 5.2 0.0 0.00 0.00 0.00 54 1008.0
20260508115701 70 63 5.2 0.0 0.00 0.00 0.00 54 1008.0
20260508105703 70 63 5.2 0.0 0.00 0.00 0.00 54 1009.0
20260508095703 70 63 5.2 0.0 0.00 0.00 0.00 54 1009.0
20260508085702 70 63 5.2 0.0 0.00 0.00 0.00 54 1009.0
20260508075702 70 63 5.2 0.0 0.00 0.00 0.00 54 1010.0
20260508065702 70 63 5.2 0.0 0.00 0.00 0.00 54 1010.0
20260508045702 67 72 3.5 0.0 0.00 0.00 0.00 61 1011.0
20260508035702 55 5 2.6 0.0 0.00 0.00 0.00 84 1011.0
20260508025702 55 5 2.6 0.0 0.00 0.00 0.00 84 1011.0
20260508015702 55 5 2.6 0.0 0.00 0.00 0.00 84 1011.0
20260508005702 55 5 2.6 0.0 0.00 0.00 0.00 84 1011.0
20260507225702 54 81 1.7 0.0 0.00 0.00 0.00 82 1011.0
20260507205702 63 50 1.7 0.0 0.00 0.00 0.00 65 1011.0
20260507195702 63 50 1.7 0.0 0.00 0.00 0.00 65 1010.0